Find Starlink 32906

NORAD ID: 63080 Int'l Des: 2025-037 Owner: SPXS Country: US Constellation: starlink operational
LEOCIRCULAR

Current View

Loading 3D Globe...

About Starlink 32906

Starlink 32906 (NORAD 63080) is a starlink constellation satellite (v2 mini) launched Feb 23, 2025 by SPXS of US. It operates in LEO, CIRCULAR orbit with a mass of 730.00 kg.

About Starlink 32906

Description loading...

Upcoming Passes

Passes for default location (London). Set your location on the main map for personalized predictions.

Altitude History

Loading altitude history...

Two-Line Element Set

1 63080U 25037D 26167.53627738 .00002386 00000-0 20770-3 0 9995
2 63080 70.0011 105.4122 0002730 269.3116 90.7730 14.98336420 73403
Epoch: Jun 16, 2026 • Age: 7 hours

Current Status

Altitude 574.0 km
Velocity 7.57 km/s
Sub-Earth Point 11.19°N, 75.05°E
Launch Date Feb 23, 2025
Age 1.3 years
Type internet

Technical Details

Classification Payload
Mass 730.00 kg
Dry Mass 700.00 kg
Total Mass 730.00 kg
Length 0.30 m
Diameter 4.10 m
Span 29.00 m
Shape Box + pan
Manufacturer SPXS
Bus Type Starlink V2M
Phase Status In Orbit
Owner/State SPXS/US

Most Searched